STARLINK-35137 (65686 NORAD) Tracking and Keplerian Element Data

This shows tracking and keplerian element data for the satellite.

Feedback or suggestion? Click here.




ElementValue
Catalog65686
NameSTARLINK-35137
Epoch Orbit1506
Epoch Day354.01045367
Epoch Year2025
RAAN350.8079
Inclination53.1597
Eccentricity0.0001544
Argument of Perigee97.0341
Mean Anonmoly263.084
Mean Motion15.39640128
Decay Rate0.00029684
L11 65686U 25212L 25354.01045367 .00029684 00000+0 74869-3 0 9993
L22 65686 53.1597 350.8079 0001544 97.0341 263.0840 15.39640128 15067



Live tracking and technical data element details for STARLINK-35137 (NORAD 65686). STARLINK-35137 can be tracked NOW for your location showing map with azimuth and elevation plus other details from your city location.







IsCatalogInMostPopularTable: catalog: 65686, numindb: 4
Update: records affected: 1



GetName: 65686 STARLINK-35137

Hit Count: updated at: Sat, 07 Feb 2026 07:10:38 GMT